Year,Month,Day,Hour,Minute,Value (Times are PST for temperature in C)
2014,09,26,08,56,13.30
2014,09,26,08,57,13.30
2014,09,26,08,58,13.30
2014,09,26,08,59,13.30
2014,09,26,09,00,13.30
2014,09,26,09,01,13.30
2014,09,26,09,02,13.30
2014,09,26,09,03,13.30
2014,09,26,09,04,13.30
2014,09,26,09,05,13.30
2014,09,26,09,06,13.30
2014,09,26,09,07,13.30
2014,09,26,09,08,13.30
2014,09,26,09,09,13.30
2014,09,26,09,10,13.30
2014,09,26,09,11,13.30
2014,09,26,09,12,13.30
2014,09,26,09,13,13.30
2014,09,26,09,14,13.30
2014,09,26,09,15,13.30
2014,09,26,09,31,13.60
2014,09,26,09,32,13.60
2014,09,26,09,33,13.70
2014,09,26,09,34,13.70
2014,09,26,09,35,13.70
2014,09,26,09,36,13.70
2014,09,26,09,37,13.70
2014,09,26,09,38,13.70
2014,09,26,09,39,13.70
2014,09,26,09,40,13.70
2014,09,26,09,41,13.70
2014,09,26,09,42,13.70
2014,09,26,09,43,13.80
2014,09,26,09,44,13.80
2014,09,26,09,45,13.80
2014,09,26,09,46,13.90
2014,09,26,09,47,14.00
2014,09,26,09,48,14.00
2014,09,26,09,49,14.00
2014,09,26,09,50,14.00
2014,09,26,09,51,14.00
2014,09,26,09,52,14.10
2014,09,26,09,53,14.10
2014,09,26,09,54,14.10
2014,09,26,09,55,14.20
2014,09,26,09,56,14.20
2014,09,26,09,57,14.20
2014,09,26,09,58,14.20
2014,09,26,09,59,14.20
2014,09,26,10,00,14.20
2014,09,26,10,01,14.20
2014,09,26,10,02,14.20
2014,09,26,10,03,14.20
2014,09,26,10,04,14.20
2014,09,26,10,05,14.20
2014,09,26,10,06,14.30
2014,09,26,10,07,14.40
2014,09,26,10,08,14.40
2014,09,26,10,09,14.40
2014,09,26,10,10,14.50
2014,09,26,10,11,14.50
2014,09,26,10,12,14.60
2014,09,26,10,13,14.70
2014,09,26,10,14,14.80
2014,09,26,10,15,14.90
2014,09,26,10,16,14.90
2014,09,26,10,17,15.00
2014,09,26,10,18,15.00
2014,09,26,10,19,15.10
2014,09,26,10,20,15.20
2014,09,26,10,21,15.30
2014,09,26,10,22,15.50
2014,09,26,10,23,15.60
2014,09,26,10,24,15.70
2014,09,26,10,25,15.70
2014,09,26,10,26,15.70
2014,09,26,10,27,15.70
2014,09,26,10,28,15.70
2014,09,26,10,29,15.60
2014,09,26,10,30,15.60
2014,09,26,10,31,15.50
2014,09,26,10,32,15.40
2014,09,26,10,33,15.30
2014,09,26,10,34,15.30
2014,09,26,10,35,15.20
2014,09,26,10,36,15.10
2014,09,26,10,37,15.10
2014,09,26,10,38,15.10
2014,09,26,10,39,15.10
2014,09,26,10,40,15.10
2014,09,26,10,41,15.20
2014,09,26,10,42,15.20
2014,09,26,10,43,15.10
2014,09,26,10,44,15.00
2014,09,26,10,45,15.00
2014,09,26,10,46,15.00
2014,09,26,10,47,15.00
2014,09,26,10,48,15.10
2014,09,26,10,49,15.10
2014,09,26,10,50,15.20
2014,09,26,10,51,15.20
2014,09,26,10,52,15.20
2014,09,26,10,53,15.20
2014,09,26,10,54,15.20
2014,09,26,10,55,15.20
2014,09,26,10,56,15.20
2014,09,26,10,57,15.30
2014,09,26,10,58,15.30
2014,09,26,10,59,15.30
2014,09,26,11,00,15.30
2014,09,26,11,01,15.20
2014,09,26,11,02,15.30
2014,09,26,11,03,15.30
2014,09,26,11,04,15.30
2014,09,26,11,05,15.20
2014,09,26,11,06,15.00
2014,09,26,11,07,14.90
2014,09,26,11,08,14.80
2014,09,26,11,09,14.70
2014,09,26,11,10,14.60
2014,09,26,11,11,14.60
2014,09,26,11,12,14.60
2014,09,26,11,13,14.50
2014,09,26,11,14,14.40
2014,09,26,11,15,14.20
2014,09,26,11,16,14.20
2014,09,26,11,17,14.20
2014,09,26,11,18,14.20
2014,09,26,11,19,14.30
2014,09,26,11,20,14.40
2014,09,26,11,21,14.50
2014,09,26,11,22,14.50
2014,09,26,11,23,14.50
2014,09,26,11,24,14.60
2014,09,26,11,25,14.60
2014,09,26,11,26,14.50
2014,09,26,11,27,14.40
2014,09,26,11,28,14.30
2014,09,26,11,29,14.20
2014,09,26,11,30,14.30
2014,09,26,11,31,14.30
2014,09,26,11,32,14.40
2014,09,26,11,33,14.40
2014,09,26,11,34,14.40
2014,09,26,11,35,14.50
2014,09,26,11,36,14.40
2014,09,26,11,37,14.30
2014,09,26,11,38,14.30
2014,09,26,11,39,14.30
2014,09,26,11,40,14.20
2014,09,26,11,41,14.20
2014,09,26,11,42,14.10
2014,09,26,11,43,14.10
2014,09,26,11,44,14.10
2014,09,26,11,45,14.10
2014,09,26,11,46,14.00
2014,09,26,11,47,14.00
2014,09,26,11,48,14.00
2014,09,26,11,49,14.00
2014,09,26,11,50,14.10
2014,09,26,11,51,14.10
2014,09,26,11,52,14.20
2014,09,26,11,53,14.10
2014,09,26,11,54,14.00
2014,09,26,11,55,13.90
2014,09,26,11,56,13.90
2014,09,26,11,57,13.80
2014,09,26,11,58,13.90
2014,09,26,11,59,13.90
2014,09,26,12,00,14.00
2014,09,26,12,01,14.10
2014,09,26,12,02,14.10
2014,09,26,12,03,14.10
2014,09,26,12,04,14.20
2014,09,26,12,05,14.20
2014,09,26,12,06,14.20
2014,09,26,12,07,14.10
2014,09,26,12,08,14.00
2014,09,26,12,09,14.00
2014,09,26,12,10,14.20
2014,09,26,12,11,14.10
2014,09,26,12,12,14.10
2014,09,26,12,13,14.10
2014,09,26,12,14,14.00
2014,09,26,12,15,14.00
2014,09,26,12,16,13.90
2014,09,26,12,17,13.80
2014,09,26,12,18,13.70
2014,09,26,12,19,13.70
2014,09,26,12,20,13.60
2014,09,26,12,21,13.60
2014,09,26,12,22,13.60
2014,09,26,12,23,13.60
2014,09,26,12,24,13.60
2014,09,26,12,25,13.50
2014,09,26,12,26,13.50
2014,09,26,12,27,13.50
2014,09,26,12,28,13.60
2014,09,26,12,29,13.60
2014,09,26,12,30,13.60
2014,09,26,12,31,13.60
2014,09,26,12,32,13.60
2014,09,26,12,33,13.70
2014,09,26,12,34,13.70
2014,09,26,12,35,13.70
2014,09,26,12,36,13.70
2014,09,26,12,37,13.70
2014,09,26,12,38,13.70
2014,09,26,12,39,13.60
2014,09,26,12,40,13.50
2014,09,26,12,41,13.40
2014,09,26,12,42,13.30
2014,09,26,12,43,13.30
2014,09,26,12,44,13.30
2014,09,26,12,45,13.30
2014,09,26,12,46,13.40
2014,09,26,12,47,13.40
2014,09,26,12,48,13.40
2014,09,26,12,49,13.40
2014,09,26,12,50,13.40
2014,09,26,12,51,13.50
2014,09,26,12,52,13.50
2014,09,26,12,53,13.50
2014,09,26,12,54,13.50
2014,09,26,12,55,13.50
2014,09,26,12,56,13.50
2014,09,26,12,57,13.40
2014,09,26,12,58,13.40
2014,09,26,12,59,13.30
2014,09,26,13,00,13.30
2014,09,26,13,01,13.20
2014,09,26,13,02,13.10
2014,09,26,13,03,13.00
2014,09,26,13,04,13.00
2014,09,26,13,05,13.00
2014,09,26,13,06,13.00
2014,09,26,13,07,12.90
2014,09,26,13,08,12.90
2014,09,26,13,09,12.90
2014,09,26,13,10,12.90
2014,09,26,13,11,12.90
2014,09,26,13,12,12.90
2014,09,26,13,13,12.90
2014,09,26,13,14,12.90
2014,09,26,13,15,12.90
2014,09,26,13,16,12.90
2014,09,26,13,17,12.90
2014,09,26,13,50,13.00
2014,09,26,13,51,13.00
2014,09,26,13,52,13.10
2014,09,26,13,53,13.10
2014,09,26,13,54,13.20
2014,09,26,13,55,13.20
2014,09,26,13,56,13.30
2014,09,26,13,57,13.30
2014,09,26,13,58,13.30
2014,09,26,13,59,13.40
2014,09,26,14,00,13.50
2014,09,26,14,01,13.60
2014,09,26,14,02,13.60
2014,09,26,14,03,13.60
2014,09,26,14,04,13.60
2014,09,26,14,05,13.60
2014,09,26,14,06,13.60
2014,09,26,14,07,13.60
2014,09,26,14,08,13.70
2014,09,26,14,09,13.70
2014,09,26,14,10,13.70
2014,09,26,14,11,13.80
2014,09,26,14,12,13.90
2014,09,26,14,13,14.00
2014,09,26,14,14,14.00
2014,09,26,14,15,14.10
2014,09,26,14,16,14.20
2014,09,26,14,17,14.20
2014,09,26,14,18,14.30
2014,09,26,14,19,14.30
2014,09,26,14,20,14.20
2014,09,26,14,21,14.20
2014,09,26,14,22,14.30
2014,09,26,14,23,14.40
2014,09,26,14,24,14.40
2014,09,26,14,25,14.50
2014,09,26,14,26,14.50
2014,09,26,14,27,14.50
2014,09,26,14,28,14.60
2014,09,26,14,29,14.70
2014,09,26,14,30,14.70
2014,09,26,14,31,14.80
2014,09,26,14,32,14.80
2014,09,26,14,33,14.80
2014,09,26,14,34,14.80
2014,09,26,14,35,14.90
2014,09,26,14,36,14.90
2014,09,26,14,37,15.00
2014,09,26,14,38,15.00
2014,09,26,14,39,15.10
2014,09,26,14,40,15.10
2014,09,26,14,41,15.10
2014,09,26,14,42,15.20
2014,09,26,14,43,15.20
2014,09,26,14,44,15.20
2014,09,26,14,45,15.20
2014,09,26,14,46,15.20
2014,09,26,14,47,15.30
2014,09,26,14,48,15.20
2014,09,26,14,49,15.10
2014,09,26,14,50,15.20
2014,09,26,14,51,15.20
2014,09,26,14,52,15.10
2014,09,26,14,53,15.10
2014,09,26,14,54,15.10
2014,09,26,14,55,15.00
2014,09,26,14,56,15.00
2014,09,26,14,57,14.90
2014,09,26,14,58,14.90
2014,09,26,14,59,14.90
2014,09,26,15,00,14.90
2014,09,26,15,01,14.90
2014,09,26,15,02,15.00
2014,09,26,15,03,15.00
2014,09,26,15,04,15.10
2014,09,26,15,05,15.00
2014,09,26,15,06,15.00
2014,09,26,15,07,15.00
2014,09,26,15,08,15.00
2014,09,26,15,09,15.00
2014,09,26,15,10,15.00
2014,09,26,15,11,14.90
2014,09,26,15,12,14.90
2014,09,26,15,13,14.90
2014,09,26,15,14,14.90
2014,09,26,15,15,14.80
2014,09,26,15,16,14.80
2014,09,26,15,17,14.80
2014,09,26,15,18,14.80
2014,09,26,15,19,14.80
2014,09,26,15,20,14.80
2014,09,26,15,21,14.70
2014,09,26,15,22,14.70
2014,09,26,15,23,14.80
2014,09,26,15,24,14.80
2014,09,26,15,25,14.80
2014,09,26,15,26,14.70
2014,09,26,15,27,14.70
2014,09,26,15,28,14.70
2014,09,26,15,29,14.70
2014,09,26,15,30,14.70
2014,09,26,15,31,14.60
2014,09,26,15,32,14.50
2014,09,26,15,33,14.60
2014,09,26,15,34,14.70
2014,09,26,15,35,14.60
2014,09,26,15,36,14.50
2014,09,26,15,37,14.50
2014,09,26,15,38,14.40
2014,09,26,15,39,14.30
2014,09,26,15,40,14.30
2014,09,26,15,41,14.30
2014,09,26,15,42,14.30
2014,09,26,15,43,14.40
2014,09,26,15,44,14.40
2014,09,26,15,45,14.40
2014,09,26,15,46,14.40
2014,09,26,15,47,14.50
2014,09,26,15,48,14.50
2014,09,26,15,49,14.50
2014,09,26,15,50,14.50
2014,09,26,15,51,14.50
2014,09,26,15,52,14.40
2014,09,26,15,53,14.30
2014,09,26,15,54,14.20
2014,09,26,15,55,14.20
2014,09,26,15,56,14.10
2014,09,26,15,57,14.10
2014,09,26,15,58,14.10
2014,09,26,15,59,14.20
2014,09,26,16,00,14.20
2014,09,26,16,01,14.20
2014,09,26,16,02,14.20
2014,09,26,16,03,14.30
2014,09,26,16,04,14.30
2014,09,26,16,05,14.30
2014,09,26,16,06,14.40
2014,09,26,16,07,14.50
2014,09,26,16,08,14.40
2014,09,26,16,09,14.40
2014,09,26,16,10,14.40
2014,09,26,16,11,14.40
2014,09,26,16,12,14.40
2014,09,26,16,13,14.50
2014,09,26,16,14,14.50
2014,09,26,16,15,14.50
2014,09,26,16,16,14.60
2014,09,26,16,17,14.70
2014,09,26,16,18,14.70
2014,09,26,16,19,14.80
2014,09,26,16,20,14.80
2014,09,26,16,21,14.80
2014,09,26,16,22,14.80
2014,09,26,16,23,14.80
2014,09,26,16,24,14.80
2014,09,26,16,25,14.80
2014,09,26,16,26,14.80
2014,09,26,16,27,14.80
2014,09,26,16,28,14.80
2014,09,26,16,29,14.70
2014,09,26,16,30,14.70
2014,09,26,16,31,14.60
2014,09,26,16,32,14.50
2014,09,26,16,33,14.40
2014,09,26,16,34,14.40
2014,09,26,16,35,14.30
2014,09,26,16,36,14.20
2014,09,26,16,37,14.20
2014,09,26,16,38,14.20
2014,09,26,16,39,14.20
2014,09,26,16,40,14.20
2014,09,26,16,41,14.20
2014,09,26,16,42,14.20
2014,09,26,16,43,14.20
2014,09,26,16,44,14.20
2014,09,26,16,45,14.20
2014,09,26,16,46,14.20
2014,09,26,16,47,14.20
2014,09,26,16,48,14.10
2014,09,26,16,49,14.00
2014,09,26,16,50,14.00
2014,09,26,16,51,14.00
2014,09,26,16,52,14.00
2014,09,26,16,53,14.00
2014,09,26,16,54,14.00
2014,09,26,16,55,14.00
2014,09,26,16,56,14.10
2014,09,26,16,57,14.20
2014,09,26,16,58,14.30
2014,09,26,16,59,14.20
2014,09,26,17,00,14.20
2014,09,26,17,01,14.20
2014,09,26,17,02,14.10
2014,09,26,17,03,14.10
2014,09,26,17,04,14.10
2014,09,26,17,05,14.00
2014,09,26,17,06,14.00
2014,09,26,17,07,13.90
2014,09,26,17,08,13.80
2014,09,26,17,09,13.70
2014,09,26,17,10,13.70
2014,09,26,17,11,13.70
2014,09,26,17,12,13.80
2014,09,26,17,13,13.90
2014,09,26,17,14,14.00
2014,09,26,17,15,14.10
2014,09,26,17,16,14.20
2014,09,26,17,17,14.20
2014,09,26,17,18,14.30
2014,09,26,17,19,14.30
2014,09,26,17,20,14.40
2014,09,26,17,21,14.50
2014,09,26,17,22,14.60
2014,09,26,17,23,14.80
2014,09,26,17,24,14.80
2014,09,26,17,25,14.90
2014,09,26,17,26,15.00
2014,09,26,17,27,15.10
2014,09,26,17,28,15.20
2014,09,26,17,29,15.30
2014,09,26,17,30,15.30
2014,09,26,17,31,15.40
2014,09,26,17,32,15.40
2014,09,26,17,33,15.50
2014,09,26,17,34,15.60
2014,09,26,17,35,15.60
2014,09,26,17,36,15.60
2014,09,26,17,37,15.60
2014,09,26,17,38,15.60
2014,09,26,17,39,15.70
2014,09,26,17,40,15.70
2014,09,26,17,41,15.70
2014,09,26,17,42,15.70
2014,09,26,17,43,15.70
2014,09,26,17,44,15.70
2014,09,26,17,45,15.70
2014,09,26,17,46,15.70
2014,09,26,17,47,15.70
2014,09,26,17,48,15.70
2014,09,26,17,49,15.70
2014,09,26,17,50,15.70
2014,09,26,17,51,15.70
2014,09,26,17,52,15.60
2014,09,26,17,53,15.60
2014,09,26,17,54,15.60
2014,09,26,17,55,15.60
2014,09,26,17,56,15.60
2014,09,26,17,57,15.50
2014,09,26,17,58,15.50
2014,09,26,17,59,15.50
2014,09,26,18,00,15.40
2014,09,26,18,01,15.30
2014,09,26,18,02,15.20
2014,09,26,18,03,15.10
2014,09,26,18,04,15.00
2014,09,26,18,05,14.80
2014,09,26,18,06,14.80
2014,09,26,18,07,14.80
2014,09,26,18,08,14.70
2014,09,26,18,09,14.60
2014,09,26,18,10,14.60
2014,09,26,18,11,14.50
2014,09,26,18,12,14.50
2014,09,26,18,13,14.40
2014,09,26,18,14,14.40
2014,09,26,18,15,14.30
2014,09,26,18,16,14.20
2014,09,26,18,17,14.20
2014,09,26,18,18,14.10
2014,09,26,18,19,14.00
2014,09,26,18,20,13.90
2014,09,26,18,21,13.90
2014,09,26,18,22,13.80
2014,09,26,18,23,13.80
2014,09,26,18,24,13.80
2014,09,26,18,25,13.80
2014,09,26,18,26,13.80
2014,09,26,18,27,13.80
2014,09,26,18,28,13.90
2014,09,26,18,29,13.90
2014,09,26,18,30,13.90
2014,09,26,18,31,13.90
2014,09,26,18,32,13.90
2014,09,26,18,33,14.00
2014,09,26,18,34,14.00
2014,09,26,18,35,14.00
2014,09,26,18,36,14.00
2014,09,26,18,37,14.00
2014,09,26,18,38,14.00
2014,09,26,18,39,14.10
2014,09,26,18,40,14.10
2014,09,26,18,41,14.00
2014,09,26,18,42,14.00
2014,09,26,18,43,14.00
2014,09,26,18,44,14.00
2014,09,26,18,45,14.00
2014,09,26,18,46,13.90
2014,09,26,18,47,13.90
2014,09,26,18,48,13.90
2014,09,26,18,49,13.90
2014,09,26,18,50,13.90
2014,09,26,18,51,13.80
2014,09,26,18,52,13.80
2014,09,26,18,53,13.80
2014,09,26,18,54,13.80
2014,09,26,18,55,13.80
2014,09,26,18,56,13.80
2014,09,26,18,57,13.80
2014,09,26,18,58,13.80
2014,09,26,18,59,13.80
2014,09,26,19,00,13.80
2014,09,26,19,01,13.80
